Overview Statistics Trail Chart Weather Telemetry Raw packets
 

This is the latest recevied weather packets stored in our database for station/object AI5BL. If no packets are shown the sender has not sent any weather packets the latest 10 day(s).

<< 27 28 29 30 31 32 33 >>
Time Temp. Humidity Pressure Rain* Wind** Luminosity Snow
1788466297 35.56° C 50% 1015.7 hPa 0 mm - 102 W/m² -
1788465993 35.56° C 45% 1015.9 hPa 0 mm - 139 W/m² -
1788465688 35.56° C 46% 1015.9 hPa 0 mm - 129 W/m² -
1788465384 35.56° C 48% 1015.9 hPa 0 mm - 122 W/m² -
1788465079 35.56° C 48% 1016 hPa 0 mm - 100 W/m² -
1788464775 35.56° C 48% 1016 hPa 0 mm - 105 W/m² -
1788464474 36.67° C 45% 1016.2 hPa 0 mm - 266 W/m² -
1788464170 36.11° C 45% 1016.3 hPa 0 mm - 380 W/m² -
1788463866 36.11° C 46% 1016.3 hPa 0 mm - 714 W/m² -
1788463562 36.67° C 45% 1016.2 hPa 0 mm - 716 W/m² -
1788463257 36.11° C 49% 1016.4 hPa 0 mm - 750 W/m² -
1788462953 35.56° C 50% 1016.5 hPa 0 mm - 765 W/m² -
1788462648 35° C 50% 1016.5 hPa 0 mm - 238 W/m² -
1788462347 35° C 50% 1016.5 hPa 0 mm - 800 W/m² -
1788462042 35° C 49% 1016.5 hPa 0 mm - 134 W/m² -
1788461737 35.56° C 48% 1016.7 hPa 0 mm - 89 W/m² -
1788461432 35.56° C 49% 1016.7 hPa 0 mm - 801 W/m² -
1788461128 36.11° C 51% 1016.4 hPa 0 mm - 852 W/m² -
1788460823 35.56° C 50% 1016.7 hPa 0 mm - 856 W/m² -
1788460522 35° C 56% 1016.8 hPa 0 mm - 741 W/m² -
1788460218 34.44° C 56% 1017 hPa 0 mm - 535 W/m² -
1788459916 34.44° C 53% 1016.9 hPa 0 mm - 182 W/m² -
1788459613 35° C 52% 1017.2 hPa 0 mm - 394 W/m² -
1788459312 34.44° C 50% 1017.3 hPa 0 mm - 567 W/m² -
1788459011 35° C 57% 1017.3 hPa 0 mm - 329 W/m² -

* Rain latest hour (hover to see other rain measurements)
** Current wind speed in m/s (hover to see current wind gust speed)